Regional Weather Roundup
Issued by NWS

Home | Current Version | Previous Version | Graphics & Text | Print | Product List | Glossary On
Versions: 1 2 3 4 5 6 7 8 9 10 11 12 13 14 15 16 17 18 19 20 21 22 23 24 25 26 27 28 29 30 31 32 33 34 35 36 37 38 39 40 41 42 43 44 45 46 47 48 49 50
000
ASUS45 KCYS 032210
RWRWY

WYOMING REGIONAL WEATHER ROUNDUP
NATIONAL WEATHER SERVICE CHEYENNE WY
400 PM MDT MON AUG 03 2015

NOTE:  "FAIR" INDICATES FEW OR NO CLOUDS BELOW 12,000 FEET
WITH NO SIGNIFICANT WEATHER AND/OR OBSTRUCTIONS TO VISIBILITY.

WYZ001-032300-
YELLOWSTONE NATIONAL PARK

CITY           SKY/WX    TMP DP  RH WIND       PRES   REMARKS
LK YELLOWSTONE   N/A     71  41  33 VRB5      30.23S
W YELLOWSTONE  NOT AVBL

$$
WYZ002>013-054>058-071-098>099-032300-
NORTHERN WYOMING

CITY           SKY/WX    TMP DP  RH WIND       PRES   REMARKS
JACKSON        CLOUDY    64  54  68 S12       30.14R
CODY           FAIR      81  52  36 N9        29.98F
GREYBULL       FAIR      92  42  17 S9        29.89F
WORLAND        FAIR      89  46  22 SW15      29.91F
SHERIDAN       FAIR      89  52  28 SE9       29.92F
BUFFALO        FAIR      83  52  34 SE8       30.01F
GILLETTE       FAIR      87  54  32 SE7G17    29.98F
HULETT         FAIR      82  48  30 NE5       30.01F
NEWCASTLE      FAIR      86  52  30 MISG      30.00F

$$
WYZ014>020-022>026-101>103-032300-
CENTRAL WYOMING

CITY           SKY/WX    TMP DP  RH WIND       PRES   REMARKS
BIG PINEY      CLOUDY    71  44  37 NE8       30.14F
PINEDALE       MOCLDY    70  43  37 N5        30.14F
DUBOIS         FAIR      73  41  31 SE17G25   30.15S
LANDER         FAIR      78  45  30 NE7       30.02F
RIVERTON       CLOUDY    80  41  24 SE10G20   30.04F
CASPER         TSTM      67  51  56 VRB3G20   30.08F
DOUGLAS        FAIR      84  51  31 S15       30.01F

$$
WYZ021-027>030-104>119-032300-
SOUTHERN WYOMING

CITY           SKY/WX    TMP DP  RH WIND       PRES   REMARKS
EVANSTON       RAIN      54  52  93 W18G24    30.21R FOG
KEMMERER       MOCLDY    59  54  82 NW5       30.17F
FORT BRIDGER   CLOUDY    57  57 100 SW12G21   30.19S
ROCK SPRINGS   FAIR      73  49  42 SE18G25   30.09F
DIXON          FAIR      75  47  38 SW20G31   30.14F
RAWLINS        FAIR      72  51  47 E6        30.14F
SARATOGA       CLOUDY    75  48  38 E6        30.16F
LARAMIE        FAIR      78  34  20 S15       30.18R
CHEYENNE       FAIR      79  37  22 S16G26    30.12F
TORRINGTON     FAIR      87  58  37 SE8       29.96F
PINE BLUFFS    FAIR      82  39  21 S15G22    30.07S

$$


USA.gov is the U.S. government's official web portal to all federal, state and local government web resources and services.